Miles City, MT

6:29 AM MDT on July 28, 2017 (GMT -0600)
Wiley

Weather History for KMLS - April, 2013

Change the Weather History Date:

Tuesday, April 2, 2013

  Actual Average Record
Temperature  
Mean Temperature 46 °F 41 °F  
Max Temperature 66 °F 54 °F 80 °F (1943)
Min Temperature 26 °F 29 °F 7 °F (1954)
Degree Days  
Heating Degree Days 19 24  
Month to date heating degree days 46 48  
Since 1 July heating degree days 6216 6723  
Cooling Degree Days 0 0  
Month to date cooling degree days 0 0  
Year to date cooling degree days 0 0  
Moisture  
Dew Point 24 °F    
Average Humidity 50    
Maximum Humidity 81    
Minimum Humidity 19    
Precipitation  
Precipitation 0.00 in 0.03 in 0.90 in (1940)
Month to date precipitation 0.00 0.06  
Year to date precipitation 0.56 1.21  
Sea Level Pressure  
Sea Level Pressure 30.08 in    
Wind  
Wind Speed 10 mph (East)    
Max Wind Speed 16 mph    
Max Gust Speed 26 mph    
Visibility 10 miles    
Events      
T = Trace of Precipitation, MM = Missing Value Source: NWS Daily Summary

Daily Weather History Graph

Daily Weather History Graph

Search for Another Location

Airport or City:

Trip Planner

Search our weather history database for the weather conditions in past years. The results will help you decide how hot, cold, wet, or windy it might be!

Date:

Astronomy

Apr. 02, 2013 Rise Set
Actual Time 6:40 AM MDT 7:34 PM MDT
Civil Twilight 6:10 AM MDT 8:04 PM MDT
Nautical Twilight 5:33 AM MDT 8:41 PM MDT
Astronomical Twilight 4:55 AM MDT 9:19 PM MDT
Moon 1:55 AM MDT (4/2) 11:20 AM MDT (4/2)
Length of Visible Light 13h 54m
Length of Day
12h 53m
Waning Gibbous, 55% of the Moon is Illuminated
Apr 2
Waning Gibbous
Apr 2
Last Quarter
Apr 10
New
Apr 18
First Quarter
Apr 25
Full

Hourly Weather History & Observations

Time (MDT) Temp. Windchill Dew Point Humidity Pressure Visibility Wind Dir Wind Speed Gust Speed Precip Events Conditions
12:53 AM 30.9 °F 23.5 °F 23.0 °F 72% 30.16 in 10.0 mi NNE 8.1 mph - N/A   Clear
1:53 AM 30.0 °F 21.1 °F 23.0 °F 75% 30.16 in 10.0 mi NNE 10.4 mph - N/A   Clear
2:53 AM 28.9 °F 19.2 °F 23.0 °F 78% 30.14 in 10.0 mi NNE 11.5 mph - N/A   Clear
3:53 AM 28.0 °F 19.3 °F 21.9 °F 78% 30.15 in 10.0 mi NNE 9.2 mph - N/A   Clear
4:53 AM 28.0 °F 18.6 °F 21.9 °F 78% 30.15 in 10.0 mi NNE 10.4 mph - N/A   Clear
5:53 AM 27.0 °F 16.7 °F 21.0 °F 78% 30.16 in 10.0 mi NNE 11.5 mph - N/A   Clear
6:53 AM 26.1 °F 16.2 °F 21.0 °F 81% 30.17 in 10.0 mi NE 10.4 mph - N/A   Clear
7:53 AM 28.9 °F 19.8 °F 21.9 °F 75% 30.19 in 10.0 mi NE 10.4 mph - N/A   Clear
8:53 AM 34.0 °F 27.2 °F 24.1 °F 67% 30.19 in 10.0 mi NE 8.1 mph - N/A   Clear
9:53 AM 39.0 °F 35.7 °F 25.0 °F 57% 30.18 in 10.0 mi East 4.6 mph - N/A   Clear
10:53 AM 44.1 °F 40.1 °F 27.0 °F 51% 30.17 in 10.0 mi ESE 6.9 mph - N/A   Clear
11:53 AM 51.1 °F - 28.0 °F 41% 30.14 in 10.0 mi East 6.9 mph - N/A   Clear
12:53 PM 55.9 °F - 26.1 °F 32% 30.10 in 10.0 mi Variable 3.5 mph - N/A   Clear
1:53 PM 60.1 °F - 24.1 °F 25% 30.07 in 10.0 mi SSE 11.5 mph 18.4 mph N/A   Clear
2:53 PM 63.0 °F - 25.0 °F 24% 30.04 in 10.0 mi SE 11.5 mph 18.4 mph N/A   Clear
3:53 PM 64.9 °F - 21.9 °F 19% 30.00 in 10.0 mi SSE 6.9 mph 16.1 mph N/A   Clear
4:53 PM 66.0 °F - 23.0 °F 20% 29.98 in 10.0 mi SSE 9.2 mph 19.6 mph N/A   Clear
5:53 PM 64.9 °F - 23.0 °F 20% 29.97 in 10.0 mi SSE 11.5 mph - N/A   Clear
6:53 PM 62.1 °F - 23.0 °F 22% 29.96 in 10.0 mi SE 10.4 mph - N/A   Clear
7:53 PM 57.9 °F - 21.9 °F 25% 29.95 in 10.0 mi SE 8.1 mph - N/A   Clear
8:53 PM 54.0 °F - 23.0 °F 30% 29.96 in 10.0 mi SE 10.4 mph - N/A   Clear
9:53 PM 50.0 °F - 24.1 °F 36% 29.96 in 10.0 mi SSE 8.1 mph - N/A   Clear
10:53 PM 48.9 °F - 24.1 °F 38% 29.94 in 10.0 mi South 11.5 mph - N/A   Clear
11:53 PM 46.9 °F - 25.0 °F 42% 29.91 in 10.0 mi SSE 12.7 mph - N/A   Partly Cloudy